TimePDT,TemperatureF,Dew PointF,Humidity,Sea Level PressureIn,VisibilityMPH,Wind Direction,Wind SpeedMPH,Gust SpeedMPH,PrecipitationIn,Events,Conditions,WindDirDegrees,DateUTC
12:52 AM,55.9,39.9,55,29.89,-9999.0,NNE,3.5,-,N/A,,Unknown,30,2012-10-18 07:52:00
1:52 AM,59.0,44.1,58,29.89,-9999.0,Calm,Calm,-,N/A,,Unknown,0,2012-10-18 08:52:00
2:52 AM,59.0,45.0,60,29.90,-9999.0,NE,5.8,-,N/A,,Unknown,40,2012-10-18 09:52:00
3:52 AM,61.0,48.9,64,29.89,-9999.0,ENE,10.4,-,N/A,,Unknown,60,2012-10-18 10:52:00
4:52 AM,64.0,48.9,58,29.90,-9999.0,East,11.5,-,N/A,,Unknown,80,2012-10-18 11:52:00
5:52 AM,63.0,48.9,60,29.91,-9999.0,ENE,11.5,-,N/A,,Unknown,70,2012-10-18 12:52:00
6:52 AM,63.0,52.0,67,29.94,-9999.0,Calm,Calm,-,N/A,,Unknown,0,2012-10-18 13:52:00
7:52 AM,68.0,55.0,63,29.94,-9999.0,ENE,6.9,-,N/A,,Unknown,60,2012-10-18 14:52:00
8:52 AM,77.0,57.9,52,29.95,-9999.0,ENE,12.7,20.7,N/A,,Unknown,60,2012-10-18 15:52:00
9:52 AM,73.0,59.0,61,29.96,-9999.0,SW,15.0,18.4,N/A,,Unknown,230,2012-10-18 16:52:00
10:52 AM,72.0,59.0,64,29.97,-9999.0,SW,13.8,-,N/A,,Unknown,220,2012-10-18 17:52:00
11:52 AM,75.0,59.0,57,29.98,-9999.0,SW,12.7,-,N/A,,Unknown,220,2012-10-18 18:52:00
12:52 PM,75.9,59.0,56,29.96,-9999.0,SSW,17.3,-,N/A,,Unknown,200,2012-10-18 19:52:00
1:52 PM,77.0,59.0,54,29.94,-9999.0,SW,15.0,-,N/A,,Unknown,220,2012-10-18 20:52:00
2:52 PM,75.0,59.0,57,29.93,-9999.0,SW,16.1,26.5,N/A,,Unknown,230,2012-10-18 21:52:00
3:52 PM,73.0,57.9,59,29.93,-9999.0,SW,13.8,-,N/A,,Unknown,220,2012-10-18 22:52:00
4:47 PM,69.8,57.2,64,30.01,-9999.0,SW,15.0,-,N/A,,Unknown,220,2012-10-18 23:47:00
4:52 PM,69.1,57.9,68,29.93,-9999.0,SSW,15.0,-,N/A,,Unknown,210,2012-10-18 23:52:00
5:52 PM,64.9,57.0,75,29.95,-9999.0,SSW,6.9,-,N/A,,Unknown,210,2012-10-19 00:52:00
6:52 PM,62.1,55.9,80,29.96,-9999.0,SSW,3.5,-,N/A,,Unknown,200,2012-10-19 01:52:00
7:52 PM,59.0,55.0,87,29.96,-9999.0,Calm,Calm,-,N/A,,Unknown,0,2012-10-19 02:52:00
8:52 PM,54.0,51.1,90,29.96,-9999.0,Calm,Calm,-,N/A,,Unknown,0,2012-10-19 03:52:00
9:52 PM,54.0,51.1,90,29.96,-9999.0,NE,3.5,-,N/A,,Unknown,40,2012-10-19 04:52:00
10:52 PM,55.0,51.1,86,29.96,-9999.0,Calm,Calm,-,N/A,,Unknown,0,2012-10-19 05:52:00
11:52 PM,52.0,48.9,89,29.96,-9999.0,Calm,Calm,-,N/A,,Unknown,0,2012-10-19 06:52:00